Weather History for KLNK - July, 2013

Change the Weather History Date:

Friday, July 19, 2013

  Actual Average Record
Temperature  
Mean Temperature 84 °F 78 °F  
Max Temperature 96 °F 89 °F 111 °F (1934)
Min Temperature 71 °F 66 °F 51 °F (2009)
Degree Days  
Heating Degree Days 0 0  
Month to date heating degree days 0 0  
Since 1 June heating degree days 20 16  
Since 1 July heating degree days 0 0  
Cooling Degree Days 19 13  
Month to date cooling degree days 256 240  
Year to date cooling degree days 574 561  
Since 1 June cooling degree days 487 482  
Growing Degree Days 34 (Base 50)    
Moisture  
Dew Point 63 °F    
Average Humidity 53    
Maximum Humidity 73    
Minimum Humidity 33    
Precipitation  
Precipitation 0.00 in 0.10 in 2.47 in (1985)
Month to date precipitation T 2.17  
Year to date precipitation 18.34 16.86  
Snow  
Snow 0.00 in 0.00 in - ()
Month to date snowfall 0.0 0.0  
Since 1 July snowfall 0.0 0.0  
Snow Depth 0.00 in    
Sea Level Pressure  
Sea Level Pressure 29.90 in    
Wind  
Wind Speed 7 mph (WNW)    
Max Wind Speed 18 mph    
Max Gust Speed 25 mph    
Visibility 10 miles    
Events      
T = Trace of Precipitation, MM = Missing Value Source: NWS Daily Summary

Daily Weather History Graph

Daily Weather History Graph

Search for Another Location

Airport or City:

Trip Planner

Search our weather history database for the weather conditions in past years. The results will help you decide how hot, cold, wet, or windy it might be!

Date:

Astronomy

Jul. 19, 2013 Rise Set
Actual Time 6:11 AM CDT 8:54 PM CDT
Civil Twilight 5:39 AM CDT 9:26 PM CDT
Nautical Twilight 4:59 AM CDT 10:06 PM CDT
Astronomical Twilight 4:13 AM CDT 10:52 PM CDT
Moon 5:58 PM CDT (7/19) 2:54 AM CDT (7/19)
Length of Visible Light 15h 46m
Length of Day
14h 42m
Waxing Gibbous, 87% of the Moon is Illuminated
Jul 19
Waxing Gibbous
Jul 22
Full
Jul 29
Last Quarter
Aug 6
New
Aug 14
First Quarter

Hourly Weather History & Observations

Time (CDT) Temp. Heat Index Dew Point Humidity Pressure Visibility Wind Dir Wind Speed Gust Speed Precip Events Conditions
12:54 AM 82.9 °F 84.0 °F 63.0 °F 51% 29.93 in 10.0 mi SSW 15.0 mph - N/A   Clear
1:54 AM 81.0 °F 82.2 °F 63.0 °F 54% 29.91 in 10.0 mi SSW 13.8 mph - N/A   Clear
2:54 AM 80.1 °F 81.5 °F 63.0 °F 56% 29.91 in 10.0 mi SW 11.5 mph - N/A   Clear
3:54 AM 77.0 °F - 63.0 °F 62% 29.90 in 10.0 mi SSW 8.1 mph - N/A   Clear
4:54 AM 75.9 °F - 63.0 °F 64% 29.89 in 10.0 mi SSW 6.9 mph - N/A   Clear
5:54 AM 75.0 °F - 63.0 °F 66% 29.90 in 10.0 mi SSW 8.1 mph - N/A   Clear
6:54 AM 73.0 °F - 64.0 °F 73% 29.90 in 10.0 mi SSW 3.5 mph - N/A   Clear
7:54 AM 78.1 °F - 64.0 °F 62% 29.91 in 10.0 mi SW 9.2 mph - N/A   Clear
8:54 AM 79.0 °F - 64.9 °F 62% 29.93 in 10.0 mi WSW 3.5 mph - N/A   Clear
9:54 AM 81.0 °F 83.0 °F 66.0 °F 60% 29.93 in 10.0 mi West 8.1 mph - N/A   Clear
10:54 AM 82.9 °F 84.6 °F 64.9 °F 54% 29.93 in 10.0 mi WSW 10.4 mph - N/A   Clear
11:54 AM 84.9 °F 87.1 °F 66.0 °F 53% 29.93 in 10.0 mi Variable 3.5 mph - N/A   Clear
12:54 PM 89.1 °F 91.0 °F 64.9 °F 45% 29.92 in 10.0 mi North 6.9 mph - N/A   Partly Cloudy
1:54 PM 91.0 °F 93.8 °F 66.0 °F 44% 29.91 in 10.0 mi Variable 3.5 mph - N/A   Clear
2:54 PM 93.0 °F 96.4 °F 66.9 °F 42% 29.90 in 10.0 mi Variable 3.5 mph - N/A   Scattered Clouds
3:54 PM 95.0 °F 97.4 °F 64.9 °F 37% 29.89 in 10.0 mi NNE 6.9 mph - N/A   Scattered Clouds
4:54 PM 93.0 °F 93.0 °F 61.0 °F 34% 29.88 in 10.0 mi North 10.4 mph - N/A   Mostly Cloudy
5:54 PM 91.0 °F 90.5 °F 60.1 °F 35% 29.88 in 10.0 mi North 8.1 mph - N/A   Clear
6:54 PM 90.0 °F 88.6 °F 57.0 °F 33% 29.87 in 10.0 mi NE 5.8 mph - N/A   Clear
7:54 PM 89.1 °F 90.0 °F 63.0 °F 42% 29.86 in 10.0 mi NE 6.9 mph - N/A   Clear
8:54 PM 80.1 °F 82.1 °F 66.0 °F 62% 29.88 in 10.0 mi NNE 4.6 mph - N/A   Clear
9:54 PM 78.1 °F - 64.0 °F 62% 29.90 in 10.0 mi North 5.8 mph - N/A   Clear
10:54 PM 75.9 °F - 63.0 °F 64% 29.91 in 10.0 mi North 3.5 mph - N/A   Clear
11:54 PM 75.0 °F - 63.0 °F 66% 29.92 in 10.0 mi North 8.1 mph - N/A   Clear